KE7WWT-1 Weather Reports


time (UTC)temp
F
wind
direction
speed
knots
gust
knots
rain 1hr
in
rain 24hr
in
rain mn
in
humidity
%
barometer
mb
20260510011555 55 254 0.0 0.9 0.00 0.00 0.00 74 1002.1
20260510011055 55 256 0.0 0.9 0.00 0.00 0.00 74 1001.7
20260510010555 55 257 0.0 1.7 0.00 0.00 0.00 74 1001.7
20260510010055 55 253 0.0 0.0 0.00 0.00 0.00 73 1001.7
20260510005555 55 253 0.0 0.9 0.00 0.00 0.00 72 1001.9
20260510005057 55 253 0.0 0.9 0.00 0.00 0.00 72 1001.9
20260510004555 55 252 0.0 0.0 0.00 0.00 0.00 71 1001.9
20260510004055 55 252 0.0 0.0 0.00 0.00 0.00 70 1001.9
20260510003555 55 252 0.0 0.0 0.00 0.00 0.00 70 1001.9
20260510003055 56 252 0.0 0.0 0.00 0.00 0.00 69 1001.9
20260510002555 56 252 0.0 0.0 0.00 0.00 0.00 69 1001.8
20260510002055 56 252 0.0 0.0 0.00 0.00 0.00 68 1001.8
20260510001555 56 252 0.0 0.0 0.00 0.00 0.00 68 1001.8
20260510001057 57 252 0.0 0.0 0.00 0.00 0.00 67 1001.8
20260510000555 57 284 0.0 0.9 0.00 0.00 0.00 67 1001.8
20260510000055 57 284 0.0 0.9 0.00 0.00 0.00 67 1001.8
20260509235555 57 283 0.0 0.9 0.00 0.00 0.00 66 1002.2
20260509235055 58 281 0.0 0.9 0.00 0.00 0.00 66 1002.2
20260509234555 58 281 0.0 0.9 0.00 0.00 0.00 65 1002.2
20260509234055 58 279 0.0 1.7 0.00 0.00 0.00 64 1002.5
20260509233555 59 280 0.0 0.0 0.00 0.00 0.00 64 1002.5
20260509233057 59 272 0.0 0.9 0.00 0.00 0.00 63 1002.5
20260509232556 59 272 0.0 0.9 0.00 0.00 0.00 61 1002.2
20260509232055 60 272 0.0 0.9 0.00 0.00 0.00 61 1002.2
20260509231556 60 272 0.0 3.5 0.00 0.00 0.00 60 1002.2
20260509231056 60 264 0.0 1.7 0.00 0.00 0.00 60 1002.3
20260509230556 61 263 0.0 4.3 0.00 0.00 0.00 60 1002.3
20260509230056 61 250 0.0 0.9 0.00 0.00 0.00 60 1002.3
20260509225556 61 250 0.0 3.5 0.00 0.00 0.00 58 1002.2
20260509225058 61 265 0.0 0.9 0.00 0.00 0.00 57 1002.2
20260509224556 62 264 0.0 0.9 0.00 0.00 0.00 56 1002.2
20260509224056 62 264 0.0 1.7 0.00 0.00 0.00 56 1002.4
20260509223556 62 249 0.0 4.3 0.00 0.00 0.00 56 1002.4
20260509223056 62 279 0.0 0.9 0.00 0.00 0.00 56 1002.4
20260509222556 62 287 0.0 3.5 0.00 0.00 0.00 55 1002.5
20260509222056 63 283 0.0 0.9 0.00 0.00 0.00 55 1002.5
20260509221556 63 283 0.0 0.9 0.00 0.00 0.00 55 1002.5
20260509221058 63 262 0.0 2.6 0.00 0.00 0.00 53 1002.4
20260509220556 64 267 0.0 2.6 0.00 0.00 0.00 52 1002.4
20260509220056 65 288 0.0 3.5 0.00 0.00 0.00 52 1002.4
20260509215556 65 269 0.0 4.3 0.00 0.00 0.00 52 1002.4
20260509215056 65 290 0.0 1.7 0.00 0.00 0.00 52 1002.4
20260509214556 65 264 0.0 1.7 0.00 0.00 0.00 52 1002.4
20260509214056 65 271 0.9 3.5 0.00 0.00 0.00 52 1002.7
20260509213556 65 8 0.9 6.1 0.00 0.00 0.00 52 1002.7
20260509213058 65 265 0.9 6.1 0.00 0.00 0.00 52 1002.7
20260509212556 64 265 0.9 5.2 0.00 0.00 0.00 54 1003.0
20260509212056 64 233 0.0 3.5 0.00 0.00 0.00 54 1003.0
20260509211556 64 256 0.0 3.5 0.00 0.00 0.00 54 1003.0
20260509211058 65 266 0.0 5.2 0.00 0.00 0.00 51 1002.9
20260509210556 65 275 0.0 1.7 0.00 0.00 0.00 53 1002.9
20260509210056 65 268 0.0 1.7 0.00 0.00 0.00 53 1002.9
20260509205556 65 300 0.0 5.2 0.00 0.00 0.00 52 1002.9
20260509205056 65 297 0.0 0.9 0.00 0.00 0.00 55 1002.9
20260509204556 65 187 0.0 0.9 0.00 0.00 0.00 55 1002.9
20260509204056 64 10 0.0 0.9 0.00 0.00 0.00 55 1003.1
20260509203556 63 128 0.0 3.5 0.00 0.00 0.00 55 1003.1
20260509203058 63 227 0.0 1.7 0.00 0.00 0.00 57 1003.1
20260509202556 63 271 0.0 1.7 0.00 0.00 0.00 57 1003.3
20260509202056 63 270 0.0 2.6 0.00 0.00 0.00 58 1003.3
20260509201556 63 271 0.0 0.9 0.00 0.00 0.00 57 1003.3
20260509201056 64 271 0.0 0.9 0.00 0.00 0.00 58 1003.6
20260509200556 64 284 0.0 0.9 0.00 0.00 0.00 56 1003.6
20260509200056 64 283 0.0 4.3 0.00 0.00 0.00 58 1003.6
20260509195556 64 310 0.0 7.0 0.00 0.00 0.00 58 1003.6
20260509195058 63 86 0.0 1.7 0.00 0.00 0.00 59 1003.6
20260509194556 64 278 0.0 2.6 0.00 0.00 0.00 55 1003.6
20260509194056 64 258 0.9 3.5 0.00 0.00 0.00 57 1003.6
20260509193556 64 281 0.0 6.1 0.00 0.00 0.00 56 1003.6
20260509193056 64 347 0.0 3.5 0.00 0.00 0.00 57 1003.6
20260509192556 64 285 0.0 7.8 0.00 0.00 0.00 54 1003.8
20260509192056 64 316 0.0 2.6 0.00 0.00 0.00 58 1003.8
20260509191556 64 271 0.0 3.5 0.00 0.00 0.00 55 1003.8
20260509191058 64 345 0.0 3.5 0.00 0.00 0.00 57 1003.8
20260509190556 65 286 0.0 3.5 0.00 0.00 0.00 54 1003.8
20260509190056 66 296 0.0 1.7 0.00 0.00 0.00 50 1003.8
20260509185556 66 281 0.0 4.3 0.00 0.00 0.00 49 1003.7
20260509185056 67 45 0.9 4.3 0.00 0.00 0.00 45 1003.7
20260509184556 67 297 1.7 7.8 0.00 0.00 0.00 46 1003.7
20260509184056 66 275 0.9 5.2 0.00 0.00 0.00 47 1003.8
20260509183556 66 285 0.0 0.9 0.00 0.00 0.00 46 1003.8
20260509183058 65 281 0.0 0.9 0.00 0.00 0.00 49 1003.8
20260509182556 66 274 0.0 0.9 0.00 0.00 0.00 45 1003.8
20260509182056 66 274 0.0 2.6 0.00 0.00 0.00 46 1003.8
20260509181556 66 38 0.0 1.7 0.00 0.00 0.00 46 1003.8
20260509181056 66 25 0.0 0.9 0.00 0.00 0.00 44 1003.8
20260509180556 66 134 0.0 0.9 0.00 0.00 0.00 44 1003.8
20260509180056 66 284 0.0 3.5 0.00 0.00 0.00 44 1003.8
20260509175556 66 288 0.0 4.3 0.00 0.00 0.00 46 1003.9
20260509175058 66 276 0.0 3.5 0.00 0.00 0.00 45 1003.9
20260509174556 66 306 0.0 1.7 0.00 0.00 0.00 46 1003.9
20260509174056 66 262 0.0 0.9 0.00 0.00 0.00 43 1004.1
20260509173556 66 257 0.0 3.5 0.00 0.00 0.00 47 1004.1
20260509173056 66 290 0.0 0.9 0.00 0.00 0.00 41 1004.1
20260509172556 66 290 0.0 3.5 0.00 0.00 0.00 46 1004.5
20260509172056 66 254 0.0 3.5 0.00 0.00 0.00 47 1004.5
20260509171556 66 290 0.0 4.3 0.00 0.00 0.00 47 1004.5
20260509171058 65 264 0.0 4.3 0.00 0.00 0.00 50 1004.7
20260509170556 64 300 0.0 1.7 0.00 0.00 0.00 46 1004.7
20260509170056 64 304 0.0 4.3 0.00 0.00 0.00 52 1004.7
20260509165556 63 300 0.0 1.7 0.00 0.00 0.00 49 1004.8
20260509165056 64 85 0.0 1.7 0.00 0.00 0.00 48 1004.8
20260509164556 64 286 0.0 1.7 0.00 0.00 0.00 51 1004.8
20260509164056 63 253 0.0 6.1 0.00 0.00 0.00 51 1005.0
20260509163556 63 262 0.9 6.1 0.00 0.00 0.00 51 1005.0
20260509163058 63 302 0.0 4.3 0.00 0.00 0.00 52 1005.0
20260509162556 63 278 0.0 4.3 0.00 0.00 0.00 50 1005.2
20260509162056 62 314 0.0 1.7 0.00 0.00 0.00 54 1005.2
20260509161556 62 300 0.0 1.7 0.00 0.00 0.00 52 1005.2
20260509161058 62 268 0.9 3.5 0.00 0.00 0.00 52 1005.6
20260509160556 62 304 0.9 5.2 0.00 0.00 0.00 54 1005.6
20260509160056 62 296 0.0 4.3 0.00 0.00 0.00 54 1005.6
20260509155556 62 285 0.0 1.7 0.00 0.00 0.00 52 1005.7
20260509155056 62 285 0.0 0.9 0.00 0.00 0.00 49 1005.7
20260509154556 63 285 0.0 7.8 0.00 0.00 0.00 49 1005.7
20260509154056 63 263 0.0 5.2 0.00 0.00 0.00 49 1005.7
20260509153556 63 276 0.0 1.7 0.00 0.00 0.00 50 1005.7
20260509153058 63 269 0.0 0.9 0.00 0.00 0.00 51 1005.7
20260509152556 63 290 0.0 1.7 0.00 0.00 0.00 50 1006.0
20260509152056 63 256 0.0 4.3 0.00 0.00 0.00 51 1006.0
20260509151556 63 271 0.0 4.3 0.00 0.00 0.00 48 1006.0
20260509151056 62 281 0.0 0.9 0.00 0.00 0.00 54 1006.1
20260509150556 62 281 0.0 3.5 0.00 0.00 0.00 52 1006.1
20260509150056 61 293 0.0 0.9 0.00 0.00 0.00 52 1006.1
20260509145556 61 267 0.0 0.9 0.00 0.00 0.00 50 1006.2
20260509145058 61 265 0.0 0.9 0.00 0.00 0.00 56 1006.2
20260509144556 61 86 0.0 0.9 0.00 0.00 0.00 56 1006.2
20260509144056 60 109 0.0 0.9 0.00 0.00 0.00 52 1006.2
20260509143556 60 109 0.0 0.9 0.00 0.00 0.00 53 1006.2
20260509143056 60 51 0.0 1.7 0.00 0.00 0.00 56 1006.2
20260509142556 59 88 0.9 2.6 0.00 0.00 0.00 51 1006.3
20260509142056 60 41 0.0 3.5 0.00 0.00 0.00 53 1006.3
20260509141556 60 18 0.0 1.7 0.00 0.00 0.00 53 1006.3
20260509141058 60 295 0.0 1.7 0.00 0.00 0.00 55 1006.6
20260509140556 59 291 0.0 0.9 0.00 0.00 0.00 54 1006.6
20260509140056 59 291 0.0 0.9 0.00 0.00 0.00 52 1006.6
20260509135556 59 291 0.0 0.9 0.00 0.00 0.00 51 1006.7
20260509135056 59 291 0.0 1.7 0.00 0.00 0.00 54 1006.7
20260509134556 59 266 0.0 0.0 0.00 0.00 0.00 51 1006.7
20260509134056 58 265 0.0 0.9 0.00 0.00 0.00 51 1006.7
20260509133556 58 293 0.0 0.9 0.00 0.00 0.00 52 1006.7
20260509133058 58 293 0.0 0.9 0.00 0.00 0.00 53 1006.7
20260509132556 57 171 0.0 0.9 0.00 0.00 0.00 51 1006.8
20260509132056 57 266 0.0 0.9 0.00 0.00 0.00 48 1006.8
20260509131556 57 151 0.0 0.9 0.00 0.00 0.00 47 1006.8
20260509131056 57 61 0.0 0.9 0.00 0.00 0.00 49 1006.8
20260509130556 56 60 0.0 0.9 0.00 0.00 0.00 47 1006.8
20260509130056 56 49 0.0 0.9 0.00 0.00 0.00 46 1006.8
20260509125556 56 40 0.0 2.6 0.00 0.00 0.00 46 1006.9
20260509125058 55 134 0.0 1.7 0.00 0.00 0.00 46 1006.9
20260509124556 55 165 0.0 0.9 0.00 0.00 0.00 46 1006.9
20260509124056 55 129 0.0 0.9 0.00 0.00 0.00 45 1007.2
20260509123556 55 129 0.0 1.7 0.00 0.00 0.00 43 1007.2
20260509123056 55 124 0.0 0.9 0.00 0.00 0.00 40 1007.2
20260509122556 55 53 0.0 4.3 0.00 0.00 0.00 41 1007.2
20260509122056 54 293 0.0 0.9 0.00 0.00 0.00 45 1007.2
20260509121556 53 186 0.0 0.9 0.00 0.00 0.00 44 1007.2
20260509121058 53 186 0.0 0.9 0.00 0.00 0.00 46 1007.3
20260509120556 52 165 0.0 1.7 0.00 0.00 0.00 45 1007.3
20260509120056 52 166 0.0 1.7 0.00 0.00 0.00 45 1007.3
20260509115556 51 75 0.0 1.7 0.00 0.00 0.00 47 1007.4
20260509115056 51 172 0.0 0.9 0.00 0.00 0.00 49 1007.4
20260509114556 50 271 0.0 0.9 0.00 0.00 0.00 53 1007.4
20260509114057 48 270 0.0 0.9 0.00 0.00 0.00 57 1007.3
20260509113556 47 270 0.0 0.0 0.00 0.00 0.00 58 1007.3
20260509113058 46 270 0.0 0.9 0.00 0.00 0.00 59 1007.3
20260509112556 45 270 0.0 0.0 0.00 0.00 0.00 63 1007.4
20260509112057 44 270 0.0 0.9 0.00 0.00 0.00 63 1007.4
20260509111557 43 270 0.0 0.9 0.00 0.00 0.00 64 1007.4
20260509111057 42 270 0.0 0.0 0.00 0.00 0.00 64 1007.5
20260509110557 41 270 0.0 0.0 0.00 0.00 0.00 66 1007.5
20260509110057 40 270 0.0 0.0 0.00 0.00 0.00 67 1007.5
20260509105557 40 270 0.0 0.0 0.00 0.00 0.00 69 1007.5
20260509105059 39 269 0.0 0.9 0.00 0.00 0.00 70 1007.5
20260509104557 38 269 0.0 0.0 0.00 0.00 0.00 69 1007.5
20260509104057 38 269 0.0 0.9 0.00 0.00 0.00 70 1007.4
20260509103557 37 269 0.0 0.0 0.00 0.00 0.00 71 1007.4
20260509103059 37 269 0.0 0.0 0.00 0.00 0.00 72 1007.4
20260509102557 36 269 0.0 0.0 0.00 0.00 0.00 73 1007.3
20260509102057 36 269 0.0 0.0 0.00 0.00 0.00 74 1007.3
20260509101557 36 269 0.0 0.0 0.00 0.00 0.00 75 1007.3
20260509101057 35 269 0.0 0.0 0.00 0.00 0.00 76 1007.4
20260509100557 35 269 0.0 0.0 0.00 0.00 0.00 78 1007.4
20260509100057 34 269 0.0 0.0 0.00 0.00 0.00 78 1007.4
20260509095557 34 269 0.0 0.0 0.00 0.00 0.00 79 1007.4
20260509095059 34 269 0.0 0.0 0.00 0.00 0.00 79 1007.4
20260509094557 34 269 0.0 0.0 0.00 0.00 0.00 80 1007.4
20260509094057 33 269 0.0 0.0 0.00 0.00 0.00 81 1007.5
20260509093557 32 269 0.0 0.0 0.00 0.00 0.00 83 1007.5
20260509093057 31 269 0.0 0.0 0.00 0.00 0.00 84 1007.5
20260509092557 30 269 0.0 0.0 0.00 0.00 0.00 83 1007.7
20260509092057 30 269 0.0 0.0 0.00 0.00 0.00 82 1007.7
20260509091557 30 269 0.0 0.0 0.00 0.00 0.00 81 1007.7
20260509091059 30 269 0.0 0.0 0.00 0.00 0.00 81 1007.8
20260509090557 31 269 0.0 0.0 0.00 0.00 0.00 81 1007.8
20260509090057 31 269 0.0 0.0 0.00 0.00 0.00 81 1007.8
20260509085557 31 269 0.0 0.0 0.00 0.00 0.00 81 1007.9
20260509085057 31 269 0.0 0.0 0.00 0.00 0.00 81 1007.9
20260509084557 32 269 0.0 0.0 0.00 0.00 0.00 81 1007.9
20260509084057 32 269 0.0 0.0 0.00 0.00 0.00 81 1007.9
20260509083557 32 269 0.0 0.0 0.00 0.00 0.00 81 1007.9
20260509083059 33 269 0.0 0.0 0.00 0.00 0.00 81 1007.9
20260509082557 33 269 0.0 0.0 0.00 0.00 0.00 80 1007.9
20260509082057 33 269 0.0 0.0 0.00 0.00 0.00 80 1007.9
20260509081557 33 269 0.0 0.0 0.00 0.00 0.00 79 1007.9
20260509081057 34 269 0.0 0.0 0.00 0.00 0.00 80 1008.0
20260509080557 33 269 0.0 0.0 0.00 0.00 0.00 80 1008.0
20260509080057 33 269 0.0 0.0 0.00 0.00 0.00 79 1008.0
20260509075557 33 269 0.0 0.0 0.00 0.00 0.00 78 1008.0
20260509075059 33 269 0.0 0.0 0.00 0.00 0.00 78 1008.0
20260509074557 34 269 0.0 0.0 0.00 0.00 0.00 77 1008.0
20260509074057 34 269 0.0 0.0 0.00 0.00 0.00 77 1008.1
20260509073557 35 269 0.0 0.0 0.00 0.00 0.00 77 1008.1
20260509073057 35 269 0.0 0.0 0.00 0.00 0.00 76 1008.1
20260509072557 36 269 0.0 0.0 0.00 0.00 0.00 76 1008.0
20260509072057 36 269 0.0 0.0 0.00 0.00 0.00 75 1008.0
20260509071557 36 269 0.0 0.0 0.00 0.00 0.00 73 1008.0
20260509071059 36 269 0.0 0.0 0.00 0.00 0.00 73 1007.9
20260509070557 36 269 0.0 0.0 0.00 0.00 0.00 73 1007.9
20260509070057 36 269 0.0 0.0 0.00 0.00 0.00 74 1007.9
20260509065557 36 269 0.0 0.0 0.00 0.00 0.00 75 1008.0
20260509065057 36 269 0.0 0.0 0.00 0.00 0.00 75 1008.0
20260509064557 37 269 0.0 0.0 0.00 0.00 0.00 75 1008.0
20260509064057 37 269 0.0 0.0 0.00 0.00 0.00 74 1008.3
20260509063557 37 269 0.0 0.0 0.00 0.00 0.00 72 1008.3
20260509063058 36 269 0.0 0.0 0.00 0.00 0.00 73 1008.3
20260509062557 36 269 0.0 0.0 0.00 0.00 0.00 74 1008.3
20260509062057 36 269 0.0 0.0 0.00 0.00 0.00 74 1008.3
20260509061557 35 269 0.0 0.0 0.00 0.00 0.00 75 1008.3
20260509061057 35 269 0.0 0.0 0.00 0.00 0.00 76 1008.5
20260509060557 35 269 0.0 0.0 0.00 0.00 0.00 76 1008.5
20260509060057 34 269 0.0 0.0 0.00 0.00 0.00 76 1008.5
20260509055557 34 269 0.0 0.0 0.00 0.00 0.00 77 1008.7
20260509055059 34 269 0.0 0.0 0.00 0.00 0.00 78 1008.7
20260509054557 34 269 0.0 0.0 0.00 0.00 0.00 79 1008.7
20260509054057 33 269 0.0 0.0 0.00 0.00 0.00 80 1009.0
20260509053557 32 269 0.0 0.9 0.00 0.00 0.00 81 1009.0
20260509053059 32 269 0.0 0.0 0.00 0.00 0.00 82 1009.0
20260509052557 32 269 0.0 0.0 0.00 0.00 0.00 82 1009.0
20260509052057 32 269 0.0 0.0 0.00 0.00 0.00 82 1009.0
20260509051557 32 269 0.0 0.0 0.00 0.00 0.00 82 1009.0
20260509051057 32 269 0.0 0.0 0.00 0.00 0.00 82 1009.0
20260509050557 32 269 0.0 0.0 0.00 0.00 0.00 81 1009.0
20260509050057 32 269 0.0 0.0 0.00 0.00 0.00 81 1009.0
20260509045557 32 269 0.0 0.0 0.00 0.00 0.00 81 1009.2
20260509045059 32 269 0.0 0.0 0.00 0.00 0.00 81 1009.2
20260509044557 32 269 0.0 0.0 0.00 0.00 0.00 81 1009.2
20260509044057 32 269 0.0 0.0 0.00 0.00 0.00 81 1009.3
20260509043557 32 269 0.0 0.0 0.00 0.00 0.00 81 1009.3
20260509043057 32 269 0.0 0.0 0.00 0.00 0.00 81 1009.3
20260509042557 32 269 0.0 0.0 0.00 0.00 0.00 81 1009.3
20260509042057 32 269 0.0 0.0 0.00 0.00 0.00 81 1009.3
20260509041557 32 269 0.0 0.0 0.00 0.00 0.00 81 1009.3
20260509041059 32 269 0.0 0.0 0.00 0.00 0.00 81 1009.1
20260509040557 32 269 0.0 0.0 0.00 0.00 0.00 81 1009.1
20260509040057 32 269 0.0 0.0 0.00 0.00 0.00 81 1009.1
20260509035557 33 269 0.0 0.0 0.00 0.00 0.00 80 1009.1
20260509035057 33 269 0.0 0.0 0.00 0.00 0.00 80 1009.1
20260509034557 33 269 0.0 0.0 0.00 0.00 0.00 80 1009.1
20260509034057 33 269 0.0 0.0 0.00 0.00 0.00 80 1009.1
20260509033557 33 269 0.0 0.0 0.00 0.00 0.00 80 1009.1
20260509033059 34 269 0.0 0.0 0.00 0.00 0.00 80 1009.1
20260509032557 34 269 0.0 0.0 0.00 0.00 0.00 80 1009.2
20260509032057 34 269 0.0 0.0 0.00 0.00 0.00 80 1009.2
20260509031557 34 269 0.0 0.0 0.00 0.00 0.00 80 1009.2
20260509031057 34 269 0.0 0.0 0.00 0.00 0.00 80 1009.4
20260509030557 34 269 0.0 0.0 0.00 0.00 0.00 80 1009.4
20260509030057 34 269 0.0 0.0 0.00 0.00 0.00 80 1009.4
20260509025557 34 269 0.0 0.0 0.00 0.00 0.00 80 1009.6
20260509025059 34 269 0.0 0.0 0.00 0.00 0.00 80 1009.6
20260509024557 34 269 0.0 0.0 0.00 0.00 0.00 79 1009.6
20260509024057 34 269 0.0 0.0 0.00 0.00 0.00 79 1009.6
20260509023557 34 269 0.0 0.0 0.00 0.00 0.00 78 1009.6
20260509023057 34 269 0.0 0.0 0.00 0.00 0.00 77 1009.6
20260509022557 34 269 0.0 0.0 0.00 0.00 0.00 76 1009.7
20260509022057 35 269 0.0 0.0 0.00 0.00 0.00 75 1009.7
20260509021557 35 269 0.0 0.0 0.00 0.00 0.00 74 1009.7
20260509021059 35 269 0.0 0.0 0.00 0.00 0.00 73 1009.6
20260509020557 36 269 0.0 0.0 0.00 0.00 0.00 72 1009.6
20260509020057 36 269 0.0 0.0 0.00 0.00 0.00 71 1009.6
20260509015557 36 269 0.0 0.0 0.00 0.00 0.00 71 1009.5
20260509015057 37 269 0.0 0.0 0.00 0.00 0.00 70 1009.5
20260509014557 37 269 0.0 0.0 0.00 0.00 0.00 69 1009.5
20260509014057 37 269 0.0 0.0 0.00 0.00 0.00 69 1009.5
20260509013557 38 269 0.0 0.0 0.00 0.00 0.00 68 1009.5
20260509013059 38 269 0.0 0.0 0.00 0.00 0.00 67 1009.5
20260509012557 39 269 0.0 0.0 0.00 0.00 0.00 67 1009.2
20260509012057 39 269 0.0 0.0 0.00 0.00 0.00 67 1009.2